• In Lithuania
  • List of Countries
  • For 7 days
  • Water Temperature
  • Satellite Maps
  • Weather Map
  • Weather Widgets
  • user-avatar
    Login

    Hourly Weather Nevdahin

    Today, 19 August, Sunday

    Time Temperature Precipitation Wind Pressure Humidity
    00:00 +26°C° 0 mm 6 mps 751 mmHg 41%
    01:00 +24°C° 0 mm 6 mps 751 mmHg 41%
    02:00 +23°C° 0 mm 6 mps 752 mmHg 41%
    03:00 +22°C° 0 mm 5 mps 752 mmHg 44%
    04:00 +22°C° 0 mm 5 mps 752 mmHg 43%
    05:00 +21°C° 0 mm 5 mps 752 mmHg 42%
    06:00 +21°C° 0 mm 5 mps 752 mmHg 41%
    07:00 +22°C° 0 mm 6 mps 753 mmHg 39%
    08:00 +23°C° 0 mm 6 mps 753 mmHg 36%
    09:00 +24°C° 0 mm 7 mps 753 mmHg 33%
    10:00 +26°C° 0 mm 7 mps 753 mmHg 31%
    11:00 +27°C° 0 mm 6 mps 753 mmHg 29%
    12:00 +28°C° 0 mm 6 mps 753 mmHg 27%
    13:00 +29°C° 0 mm 6 mps 753 mmHg 26%
    14:00 +29°C° 0 mm 6 mps 753 mmHg 25%
    15:00 +29°C° 0 mm 6 mps 753 mmHg 23%
    16:00 +29°C° 0 mm 6 mps 753 mmHg 24%
    17:00 +28°C° 0 mm 6 mps 753 mmHg 25%
    18:00 +27°C° 0 mm 5 mps 753 mmHg 25%
    19:00 +26°C° 0 mm 5 mps 753 mmHg 27%
    20:00 +23°C° 0 mm 5 mps 753 mmHg 29%
    21:00 +21°C° 0 mm 4 mps 754 mmHg 31%
    22:00 +21°C° 0 mm 4 mps 754 mmHg 31%
    23:00 +20°C° 0 mm 4 mps 754 mmHg 32%

    Tomorrow, 20 August, Monday

    Time Temperature Precipitation Wind Pressure Humidity
    00:00 +19°C° 0 mm 4 mps 754 mmHg 32%
    01:00 +19°C° 0 mm 4 mps 754 mmHg 34%
    02:00 +18°C° 0 mm 4 mps 754 mmHg 35%
    03:00 +18°C° 0 mm 4 mps 754 mmHg 36%
    04:00 +18°C° 0 mm 4 mps 754 mmHg 38%
    05:00 +17°C° 0 mm 4 mps 754 mmHg 40%
    06:00 +17°C° 0 mm 4 mps 754 mmHg 41%
    07:00 +19°C° 0 mm 5 mps 754 mmHg 38%
    08:00 +21°C° 0 mm 6 mps 754 mmHg 34%
    09:00 +24°C° 0 mm 7 mps 754 mmHg 30%
    10:00 +26°C° 0 mm 7 mps 754 mmHg 29%
    11:00 +27°C° 0 mm 7 mps 754 mmHg 27%
    12:00 +28°C° 0 mm 7 mps 753 mmHg 25%
    13:00 +29°C° 0 mm 7 mps 753 mmHg 24%
    14:00 +29°C° 0 mm 7 mps 752 mmHg 23%
    15:00 +30°C° 0 mm 7 mps 752 mmHg 22%
    16:00 +29°C° 0 mm 6 mps 752 mmHg 24%
    17:00 +29°C° 0 mm 5 mps 752 mmHg 25%
    18:00 +28°C° 0 mm 5 mps 752 mmHg 26%
    19:00 +26°C° 0 mm 4 mps 752 mmHg 29%
    20:00 +23°C° 0 mm 4 mps 752 mmHg 31%
    21:00 +21°C° 0 mm 4 mps 752 mmHg 34%
    22:00 +21°C° 0 mm 4 mps 752 mmHg 37%
    23:00 +20°C° 0 mm 4 mps 752 mmHg 40%

    Day after tomorrow, 21 August, Tuesday

    Time Temperature Precipitation Wind Pressure Humidity
    00:00 +20°C° 0 mm 4 mps 752 mmHg 43%
    01:00 +19°C° 0 mm 4 mps 752 mmHg 49%
    02:00 +18°C° 0 mm 4 mps 752 mmHg 56%
    03:00 +18°C° 0 mm 4 mps 752 mmHg 63%
    04:00 +18°C° 0 mm 4 mps 752 mmHg 67%
    05:00 +17°C° 0 mm 4 mps 752 mmHg 72%
    06:00 +17°C° 0 mm 4 mps 752 mmHg 77%
    07:00 +19°C° 0 mm 5 mps 752 mmHg 68%
    08:00 +22°C° 0 mm 5 mps 752 mmHg 59%
    09:00 +24°C° 0 mm 6 mps 752 mmHg 50%
    10:00 +26°C° 0 mm 6 mps 752 mmHg 45%
    11:00 +28°C° 0 mm 6 mps 752 mmHg 40%
    12:00 +29°C° 0 mm 6 mps 752 mmHg 35%
    13:00 +30°C° 0 mm 6 mps 751 mmHg 34%
    14:00 +32°C° 0 mm 5 mps 751 mmHg 33%
    15:00 +32°C° 0 mm 5 mps 750 mmHg 32%
    16:00 +32°C° 0 mm 5 mps 750 mmHg 33%
    17:00 +32°C° 0 mm 4 mps 750 mmHg 35%
    18:00 +30°C° 0 mm 3 mps 750 mmHg 36%
    19:00 +28°C° 0 mm 3 mps 750 mmHg 40%
    20:00 +27°C° 0 mm 3 mps 750 mmHg 43%
    21:00 +25°C° 0 mm 2 mps 751 mmHg 47%
    22:00 +24°C° 0 mm 2 mps 751 mmHg 48%
    23:00 +24°C° 0 mm 2 mps 751 mmHg 50%

    22 August, Wednesday

    Time Temperature Precipitation Wind Pressure Humidity
    00:00 +23°C° 0 mm 2 mps 751 mmHg 51%
    01:00 +21°C° 0 mm 2 mps 751 mmHg 54%
    02:00 +21°C° 0 mm 2 mps 751 mmHg 57%
    03:00 +20°C° 0 mm 2 mps 751 mmHg 59%
    04:00 +20°C° 0 mm 2 mps 751 mmHg 62%
    05:00 +20°C° 0 mm 2 mps 751 mmHg 65%
    06:00 +20°C° 0 mm 2 mps 751 mmHg 67%
    07:00 +23°C° 0 mm 2 mps 751 mmHg 60%
    08:00 +26°C° 0 mm 2 mps 752 mmHg 53%
    09:00 +28°C° 0 mm 2 mps 752 mmHg 46%
    10:00 +30°C° 0 mm 2 mps 751 mmHg 42%
    11:00 +31°C° 0 mm 2 mps 751 mmHg 37%
    12:00 +34°C° 0 mm 2 mps 751 mmHg 33%
    13:00 +34°C° 0 mm 2 mps 751 mmHg 31%
    14:00 +35°C° 0 mm 2 mps 750 mmHg 29%
    15:00 +35°C° 0 mm 2 mps 750 mmHg 27%
    16:00 +35°C° 0 mm 2 mps 750 mmHg 28%
    17:00 +34°C° 0 mm 2 mps 750 mmHg 29%
    18:00 +34°C° 0 mm 2 mps 750 mmHg 29%
    19:00 +31°C° 0 mm 2 mps 751 mmHg 32%
    20:00 +29°C° 0 mm 2 mps 751 mmHg 35%
    21:00 +27°C° 0 mm 2 mps 752 mmHg 38%
    22:00 +27°C° 0 mm 2 mps 752 mmHg 39%
    23:00 +26°C° 0 mm 2 mps 752 mmHg 40%

    23 August, Thursday

    Time Temperature Precipitation Wind Pressure Humidity
    00:00 +25°C° 0 mm 2 mps 752 mmHg 41%
    01:00 +25°C° 0 mm 2 mps 752 mmHg 44%
    02:00 +24°C° 0 mm 3 mps 752 mmHg 48%
    03:00 +22°C° 0 mm 3 mps 753 mmHg 51%
    04:00 +22°C° 0 mm 3 mps 753 mmHg 53%
    05:00 +21°C° 0 mm 3 mps 753 mmHg 55%
    06:00 +21°C° 0 mm 3 mps 754 mmHg 58%
    07:00 +23°C° 0 mm 4 mps 754 mmHg 52%
    08:00 +25°C° 0 mm 4 mps 754 mmHg 46%
    09:00 +27°C° 0 mm 5 mps 754 mmHg 40%
    10:00 +29°C° 0 mm 5 mps 754 mmHg 37%
    11:00 +30°C° 0 mm 5 mps 753 mmHg 34%
    12:00 +33°C° 0 mm 6 mps 753 mmHg 30%
    13:00 +34°C° 0 mm 6 mps 753 mmHg 29%
    14:00 +34°C° 0 mm 6 mps 753 mmHg 28%
    15:00 +34°C° 0 mm 6 mps 753 mmHg 27%
    16:00 +34°C° 0 mm 6 mps 753 mmHg 28%
    17:00 +33°C° 0 mm 6 mps 753 mmHg 29%
    18:00 +32°C° 0 mm 6 mps 753 mmHg 31%
    19:00 +30°C° 0 mm 6 mps 753 mmHg 32%
    20:00 +28°C° 0 mm 6 mps 753 mmHg 32%
    21:00 +27°C° 0 mm 6 mps 754 mmHg 33%
    22:00 +26°C° 0 mm 6 mps 754 mmHg 31%
    23:00 +24°C° 0 mm 6 mps 754 mmHg 30%

    24 August, Friday

    Time Temperature Precipitation Wind Pressure Humidity
    00:00 +24°C° 0 mm 6 mps 754 mmHg 28%
    01:00 +23°C° 0 mm 6 mps 754 mmHg 28%
    02:00 +23°C° 0 mm 6 mps 754 mmHg 28%
    03:00 +22°C° 0 mm 6 mps 754 mmHg 28%
    04:00 +22°C° 0 mm 6 mps 754 mmHg 30%
    05:00 +22°C° 0 mm 6 mps 754 mmHg 31%
    06:00 +21°C° 0 mm 6 mps 754 mmHg 32%
    07:00 +23°C° 0 mm 7 mps 754 mmHg 33%
    08:00 +24°C° 0 mm 7 mps 754 mmHg 33%
    09:00 +27°C° 0 mm 8 mps 754 mmHg 34%
    10:00 +29°C° 0 mm 8 mps 753 mmHg 32%
    11:00 +31°C° 0 mm 8 mps 753 mmHg 30%
    12:00 +33°C° 0 mm 8 mps 752 mmHg 28%
    13:00 +33°C° 0 mm 8 mps 752 mmHg 27%
    14:00 +33°C° 0 mm 9 mps 752 mmHg 26%
    15:00 +34°C° 0 mm 9 mps 751 mmHg 25%
    16:00 +33°C° 0 mm 8 mps 751 mmHg 27%
    17:00 +32°C° 0 mm 8 mps 751 mmHg 28%
    18:00 +32°C° 0 mm 7 mps 751 mmHg 29%
    19:00 +29°C° 0 mm 7 mps 751 mmHg 31%
    20:00 +28°C° 0 mm 7 mps 752 mmHg 32%
    21:00 +26°C° 0 mm 7 mps 752 mmHg 34%
    22:00 +26°C° 0 mm 7 mps 752 mmHg 36%
    23:00 +24°C° 0 mm 7 mps 752 mmHg 39%
    Show more